カタログに戻る

THORAD AGENA D DEB

運用中LEO
NORAD 4155·DEBRIS·🇺🇸 United States

打ち上げ Sep 30, 1969 から Vandenberg Space Force Base

Loading…

次のパス (今後24時間)

TLE

最新Source: Space-Track

元期: Sep 14, 2026, 07:13 UTC

1 04155U 69082X   26257.30127892  .00000564  00000-0  20032-3 0  9999
2 04155  70.0460 212.7039 0052828  68.0939 292.5794 14.38521436952368

AllMySatでTHORAD AGENA D DEBをリアルタイム追跡

Download on the App Store